Weather History for Longview, TX

Change the Weather History Date:

Sunday, January 6, 2013

  Actual Average Record
Temperature  
Mean Temperature 46 °F 46 °F  
Max Temperature 60 °F 57 °F 80 °F (1956)
Min Temperature 32 °F 36 °F 16 °F (1959)
Degree Days  
Heating Degree Days 19 19  
Month to date heating degree days 134 114  
Since 1 July heating degree days 913 1020  
Cooling Degree Days 0 0  
Month to date cooling degree days 0 0  
Year to date cooling degree days 0 0  
Moisture  
Dew Point 33 °F    
Average Humidity 66    
Maximum Humidity 100    
Minimum Humidity 32    
Precipitation  
Precipitation 0.00 in 0.11 in 3.88 in (1998)
Month to date precipitation 0.33 0.63  
Year to date precipitation 0.33 0.63  
Snow  
Snow 0.00 in - - ()
Month to date snowfall T  
Since 1 July snowfall 0.7  
Snow Depth 0.00 in    
Sea Level Pressure  
Sea Level Pressure 30.33 in    
Wind  
Wind Speed 2 mph (NNW)    
Max Wind Speed 12 mph    
Max Gust Speed 15 mph    
Visibility 4 miles    
Events Fog    
T = Trace of Precipitation, MM = Missing Value Source: NWS Daily Summary

Daily Weather History Graph

Daily Weather History Graph

Search for Another Location

Airport:

Trip Planner

Search our weather history database for the weather conditions in past years. The results will help you decide how hot, cold, wet, or windy it might be!

Date:

Astronomy

Jan. 06, 2013 Rise Set
Actual Time 7:21 AM CST 5:28 PM CST
Civil Twilight 6:54 AM CST 5:55 PM CST
Nautical Twilight 6:23 AM CST 6:26 PM CST
Astronomical Twilight 5:53 AM CST 6:55 PM CST
Moon 1:43 AM CST (1/6) 12:50 PM CST (1/6)
Length of Visible Light 11h 01m
Length of Day
10h 07m
Waning Crescent, 33% of the Moon is Illuminated
Jan 6
Waning Crescent
Jan 11
New
Jan 18
First Quarter
Jan 26
Full
Feb 3
Last Quarter

Hourly Weather History & Observations

Time (CST) Temp. Windchill Dew Point Humidity Pressure Visibility Wind Dir Wind Speed Gust Speed Precip Events Conditions
12:24 AM 33.8 °F - 32.0 °F 93% 30.30 in 1.8 mi Calm Calm - N/A   Scattered Clouds
12:48 AM 33.8 °F - 33.8 °F 100% 30.30 in 0.2 mi Calm Calm - N/A Fog Fog
12:53 AM 34.0 °F - 32.0 °F 92% 30.31 in 0.2 mi Calm Calm - N/A Fog Fog
1:33 AM 33.8 °F - 30.2 °F 87% 30.31 in 0.5 mi Calm Calm - N/A Fog Fog
1:48 AM 33.8 °F - 32.0 °F 93% 30.31 in 0.2 mi Calm Calm - N/A Fog Fog
1:53 AM 33.1 °F - 32.0 °F 96% 30.32 in 0.2 mi Calm Calm - N/A Fog Fog
2:53 AM 34.0 °F - 34.0 °F 100% 30.32 in 0.2 mi Calm Calm - N/A Fog Fog
3:17 AM 33.8 °F - 33.8 °F 100% 30.30 in 0.2 mi Calm Calm - N/A Fog Fog
3:36 AM 35.6 °F - 33.8 °F 93% 30.30 in 0.2 mi Calm Calm - N/A Fog Fog
3:53 AM 35.1 °F - 34.0 °F 96% 30.31 in 0.2 mi Calm Calm - N/A Fog Fog
4:53 AM 34.0 °F - 34.0 °F 100% 30.31 in 0.2 mi Calm Calm - N/A Fog Fog
5:04 AM 33.8 °F 30.8 °F 33.8 °F 100% 30.31 in 0.2 mi WNW 3.5 mph - N/A Fog Fog
5:53 AM 33.1 °F 30.0 °F 33.1 °F 100% 30.32 in 0.2 mi WNW 3.5 mph - N/A Fog Fog
6:09 AM 33.8 °F - 32.0 °F 93% 30.31 in 0.2 mi Calm Calm - N/A Fog Fog
6:21 AM 33.8 °F - 32.0 °F 93% 30.31 in 0.2 mi Calm Calm - N/A Fog Fog
6:53 AM 33.1 °F - 32.0 °F 96% 30.34 in 0.2 mi Calm Calm - N/A Fog Fog
7:02 AM 33.8 °F - 32.0 °F 93% 30.32 in 0.2 mi Calm Calm - N/A Fog Fog
7:27 AM 33.8 °F - 32.0 °F 93% 30.33 in 0.2 mi Calm Calm - N/A Fog Fog
7:53 AM 33.1 °F - 32.0 °F 96% 30.35 in 0.2 mi Calm Calm - N/A Fog Fog
8:53 AM 34.0 °F - 34.0 °F 100% 30.37 in 0.2 mi Calm Calm - N/A Fog Fog
9:42 AM 35.6 °F - 35.6 °F 100% 30.37 in 0.2 mi Calm Calm - N/A Fog Fog
10:09 AM 39.2 °F - 39.2 °F 100% 30.37 in 0.5 mi Calm Calm - N/A Fog Fog
10:24 AM 39.2 °F - 39.2 °F 100% 30.37 in 2.0 mi Calm Calm - N/A   Overcast
10:32 AM 41.0 °F - 39.2 °F 93% 30.37 in 5.0 mi Calm Calm - N/A   Mostly Cloudy
10:53 AM 43.0 °F - 39.9 °F 89% 30.38 in 9.0 mi Calm Calm - N/A   Partly Cloudy
11:53 AM 53.1 °F - 39.0 °F 59% 30.36 in 10.0 mi Variable 4.6 mph - N/A   Clear
12:53 PM 55.0 °F - 37.0 °F 51% 30.33 in 10.0 mi NNW 5.8 mph - N/A   Clear
1:53 PM 59.0 °F - 30.9 °F 35% 30.30 in 10.0 mi NNE 8.1 mph - N/A   Clear
2:53 PM 60.1 °F - 30.0 °F 32% 30.30 in 10.0 mi North 8.1 mph - N/A   Clear
3:53 PM 60.1 °F - 30.0 °F 32% 30.30 in 10.0 mi North 6.9 mph - N/A   Clear
4:53 PM 57.9 °F - 28.9 °F 33% 30.30 in 10.0 mi NNE 5.8 mph - N/A   Clear
5:53 PM 53.1 °F - 28.9 °F 40% 30.31 in 10.0 mi North 4.6 mph - N/A   Clear
6:53 PM 44.1 °F - 33.1 °F 65% 30.33 in 10.0 mi Calm Calm - N/A   Clear
7:53 PM 42.1 °F - 32.0 °F 67% 30.35 in 10.0 mi Calm Calm - N/A   Clear
8:53 PM 39.0 °F 36.8 °F 33.1 °F 79% 30.36 in 10.0 mi NW 3.5 mph - N/A   Clear
9:53 PM 37.0 °F - 30.9 °F 79% 30.37 in 10.0 mi Calm Calm - N/A   Clear
10:53 PM 35.1 °F - 28.9 °F 78% 30.36 in 10.0 mi Calm Calm - N/A   Clear
11:53 PM 35.1 °F - 30.0 °F 82% 30.35 in 10.0 mi Calm Calm - N/A   Clear